Home > Weather > Hoshiarpur > Past weeks

Flag for India Past Weather in Hoshiarpur, Punjab, India — Yesterday and Last 2 Weeks

Now
88 °F

Passing clouds.


Feels Like: 105 °F
Forecast: 85 / 103 °F
Wind: 2 mph from North

Location: Amritsar Airport

Current Time: Jun 28, 2016 at 2:01:24 AM

Latest Report: Jun 27, 2016 at 11:00 PM


Visibility: 2 mi

Pressure: 29.53 "Hg

Humidity: 79%

Dew Point: 81 °F

Location of HoshiarpurLocation

Past Weather in Hoshiarpur — Graph

°F

Hoshiarpur Temperature Yesterday

Maximum temperature yesterday: 97 °F (at 4:00 PM)
Minimum temperature yesterday: 82 °F (at 8:30 AM)
Average temperature yesterday: 91 °F

High & Low Weather Summary for the Past Weeks

 TemperatureHumidityPressure
High104 °F (Jun 13, 2:30 PM)100% (Jun 17, 8:30 AM)29.68 "Hg (Jun 17, 8:30 AM)
Low73 °F (Jun 22, 10:30 AM)31% (Jun 13, 3:00 PM)29.33 "Hg (Jun 15, 5:00 PM)
Average90 °F67%29.53 "Hg
* Reported Jun 12 11:00 PM — Jun 27 11:00 PM, Hoshiarpur, Weather by CustomWeather, © 2016

Note: Actual official high and low records may vary slightly from our data, if they occured in-between our weather recording intervals... More about our weather records

Advertising

Hoshiarpur Weather History for the Previous 24 Hours

Scroll right to see more
 ConditionsComfort  
Time TempWeatherWind HumidityBarometerVisibility
11:00 PM
Mon, Jun 27
88 °FPassing clouds.2 mph79%29.53 "Hg2 mi
10:30 PM90 °FPassing clouds.2 mph71%29.56 "Hg2 mi
10:00 PM90 °FPassing clouds.2 mph67%29.53 "Hg2 mi
9:30 PM90 °FPassing clouds.No wind67%29.53 "Hg2 mi
9:00 PM91 °FPassing clouds.2 mph63%29.53 "Hg2 mi
8:30 PM91 °FPassing clouds.No wind59%29.53 "Hg2 mi
8:00 PM91 °FScattered clouds.No wind59%29.50 "Hg2 mi
7:30 PM91 °FScattered clouds.6 mph63%29.50 "Hg2 mi
7:00 PM93 °FScattered clouds.7 mph59%29.47 "Hg2 mi
6:30 PM95 °FScattered clouds.6 mph56%29.47 "Hg2 mi
6:00 PM95 °FScattered clouds.6 mph56%29.45 "Hg2 mi
5:30 PM95 °FScattered clouds.10 mph53%29.45 "Hg2 mi
5:00 PM95 °FScattered clouds.9 mph53%29.45 "Hg3 mi
4:30 PM97 °FScattered clouds.6 mph44%29.45 "Hg3 mi
4:00 PM97 °FBroken clouds.7 mph44%29.45 "Hg3 mi
3:30 PM95 °FBroken clouds.8 mph47%29.47 "Hg3 mi
2:30 PM95 °FBroken clouds.7 mph47%29.53 "Hg3 mi
2:00 PM95 °FBroken clouds.9 mph47%29.53 "Hg3 mi
1:30 PM93 °FBroken clouds.8 mph49%29.53 "Hg3 mi
1:00 PM93 °FBroken clouds.9 mph53%29.56 "Hg3 mi
12:30 PM91 °FBroken clouds.9 mph59%29.56 "Hg3 mi
12:00 PM91 °FBroken clouds.9 mph52%29.59 "Hg3 mi
11:30 AM91 °FBroken clouds.No wind46%29.59 "Hg3 mi
11:00 AM90 °FBroken clouds.6 mph52%29.59 "Hg3 mi
10:30 AM86 °FBroken clouds.8 mph59%29.59 "Hg2 mi
9:30 AM82 °FMore clouds than sun.16 mph74%29.62 "Hg1 mi
9:00 AM84 °FFog.13 mph79%29.62 "Hg1 mi
8:30 AM82 °FFog.15 mph84%29.62 "Hg1 mi
8:00 AM86 °FFog.6 mph79%29.59 "Hg1 mi
7:30 AM88 °FFog.No wind79%29.53 "Hg1 mi
7:00 AM88 °FFog.No wind79%29.53 "Hg1 mi
5:30 AM88 °FThunderstorms. Partly cloudy.2 mph79%29.53 "Hg1 mi
5:00 AM90 °FThundershowers. Partly cloudy.6 mph75%29.56 "Hg1 mi
2:30 AM88 °FFog.2 mph94%29.53 "Hg1 mi
2:00 AM88 °FFog.No wind94%29.53 "Hg1 mi
Weather by CustomWeather, © 2016

See weather overviewHow to use our weather pages